Regional Weather Roundup
Issued by NWS Wilmington, NC

Home | Current Version | Previous Version | Text Only | Print | Product List | Glossary On
Versions: 1 2 3 4 5 6 7 8 9 10 11 12 13 14 15 16 17 18 19 20 21 22 23 24 25 26 27 28 29 30 31 32 33 34 35 36 37 38 39 40 41 42 43 44 45 46 47 48 49 50
092
ASUS42 KILM 302113
RWRILM
RWRILM
REGIONAL HOURLY WEATHER ROUNDUP
NATIONAL WEATHER SERVICE WILMINGTON NC
500 PM EDT SAT JUL 30 2016

NOTE: "FAIR" INDICATES FEW OR NO CLOUDS BELOW 12,000 FEET WITH NO
SIGNIFICANT WEATHER AND/OR OBSTRUCTIONS TO VISIBILITY.

...............WFO WILMINGTON COUNTY WARNING AREA...............

......COASTAL NC AND SC COUNTIES......

CITY           SKY/WX    TMP DP  RH WIND       PRES   REMARKS
WILMINGTON     MOSUNNY   93  75  55 SW8       29.94S HX 104
N MYRTLE BEACH MOSUNNY   91  77  63 SW14G24   29.95S HX 104
MYRTLE BEACH   MOSUNNY   93  68  43 S16       29.96F HX  97

......INLAND NC AND SC COUNTIES.......

CITY           SKY/WX    TMP DP  RH WIND       PRES   REMARKS
LUMBERTON      SUNNY     96  72  45 SW10      29.91F HX 104
ELIZABETHTOWN  SUNNY     98  68  37 SW10      29.93R HX 103
WHITEVILLE     SUNNY     96  70  43 SW8       29.93S HX 103
FLORENCE       SUNNY     96  70  42 S13       29.92F HX 102
DARLINGTON     NOT AVBL
KINGSTREE      PTSUNNY   95  68  41 S6        29.93S HX  99
HARTSVILLE     FAIR      88  73  62 CALM      29.92F HX  96
BENNETTSVILLE  FAIR      97  72  44 S13       29.91S HX 105
CONWAY         FAIR      91  73  55 S9        29.94S HAZE    HX 100
GEORGETOWN     FAIR      93  73  52 S12       29.96F HX 102
MARION           N/A     97  72  44 SW8       29.93S HX 105

....................REST OF NORTH CAROLINA......................

.........EASTERN NC.........

CITY           SKY/WX    TMP DP  RH WIND       PRES   REMARKS
CAPE HATTERAS  CLOUDY    85  80  85 S5        29.99R HX  99
JACKSONVILLE   CLOUDY    89  79  72 SE6       29.94R HX 104
MOREHEAD CITY  CLOUDY    86  79  79 MISG      29.98R HX  99
KENANSVILLE    NOT AVBL
NEW BERN       CLOUDY    77  73  87 SE7       29.96R
ELIZABETH CITY LGT RAIN  77  75  93 SW6       30.00S

.........CENTRAL NC.........

CITY           SKY/WX    TMP DP  RH WIND       PRES   REMARKS
RALEIGH DURHAM CLOUDY    90  73  57 W3        29.93R HX  98
ROCKY MOUNT    MOSUNNY   95  73  48 SW7       29.92S HX 104
ROANOKE RAPIDS NOT AVBL
FAYETTEVILLE   MOSUNNY   99  68  36 SW15      29.91R HX 104
HOFFMAN        MOSUNNY   96  63  33 W9G21     29.91F HX  97

.........WESTERN NC.........

CITY           SKY/WX    TMP DP  RH WIND       PRES   REMARKS
CHARLOTTE      PTSUNNY   91  67  44 SW9       29.95F HX  94
GREENSBORO     MOSUNNY   94  64  37 W10       29.94S HX  95
HICKORY        NOT AVBL
BOONE          NOT AVBL
ASHEVILLE      NOT AVBL

.....................REST OF SOUTH CAROLINA.....................

.........EASTERN SC.........

CITY           SKY/WX    TMP DP  RH WIND       PRES   REMARKS
CHARLESTON     MOSUNNY   96  72  45 S17       29.95S HX 104
BEAUFORT MCAS    N/A     96  75  50 S9        29.96R HX 108
HILTON HEAD    MOSUNNY   97  79  56 S12G21    29.98F HX 115

.........CENTRAL SC.........

CITY           SKY/WX    TMP DP  RH WIND       PRES   REMARKS
COLUMBIA       CLOUDY    91  69  48 SW10      29.93F HX  96
ORANGEBURG     CLOUDY    94  70  45 W16       29.95R HX 100
SUMTER SHAW    SUNNY     94  70  46 SW10      29.91S HAZE    HX 100

.........WESTERN SC.........

CITY           SKY/WX    TMP DP  RH WIND       PRES   REMARKS
GREENVILLE     NOT AVBL
ROCK HILL      PTSUNNY   89  68  49 S7        29.96F HX  93
ANDERSON       MOSUNNY   83  70  64 W9        29.98R
CLEMSON        NOT AVBL
GREENWOOD      SUNNY     91  70  49 S6        29.97F HX  96


...................COASTAL AND OFFSHORE REPORTS..................

................LOCAL PIERS AND NC RESERVE................


STATION/POSITION TIME  SKY/WX   TEMP    WIND        PRES    VSBY
                                AIR SEA DIR/SP/G
                 (UTC)          (F)     (DEG/KT/KT) (MB)    (MI)
JOHNY MRCER PIER 2000            84 83  190/ 15/ 16 1012.9F
NC RESRV MASNBRO NOT AVBL
OCEAN CREST PIER NOT AVBL
SPRINGMAID  PIER 2000            86 82              1014.1F


................COASTAL AND OFFSHORE BUOYS................


STATION/POSITION TIME  SKY/WX   TEMP    WIND        PRES    VSBY
                                AIR SEA DIR/SP/G
                 (UTC)          (F)     (DEG/KT/KT) (MB)    (MI)
DIMNDSHOAL 41025 2050            85 85  180/ 14/ 16 1015.4R
WVE H/P(F/S)=  2/ 6 SWL H/P/D(F/S/D)=  2/230/ 6

CAPE LOOKOUT     2100            86     190/  7/ 10 1015.0R
ONSLOW BAY 41036 NOT AVBL
ONSLOW BAY 41064 2008            86 85  200/ 14/ 17 1014.1F
ONSLOW BAY 41159 2025               85                N/A
WVE H/P(F/S)=  3/ 6

5SE WRITBC 41038 2008            83 81  210/ 12/ 16 1014.6F
MASNBO INL 41110 2006               81                N/A
WVE H/P(F/S)=  2/ 5

WILM HARBR 41108 2026               85                N/A
WVE H/P(F/S)=  3/ 6

27SE WRITB 41037 2008            86 85  200/ 14/ 16 1014.3F
FRYING PAN 41013 2100            86 86  200/ 14/ 16 1014.1F
SUNST NRSH 41024 2008            86 85  200/ 16/ 19 1013.6F
CAPRS NRSH 41029 2008            86 87  200/ 14/ 19 1014.3F
EDISTO     41004 2050            86 87  200/ 12/ 16 1014.5F
WVE H/P(F/S)=  2/ 5 SWL H/P/D(F/S/D)=  2/140/ 8



..........OFFSHORE BUOYS BEYOND 100 NM OFFSHORE...........
.....IN A TRIANGLE---HAT TO BERMUDA TO BAHAMAS TO HAT.....


STATION/POSITION TIME  SKY/WX   TEMP    WIND        PRES    VSBY
                                AIR SEA DIR/SP/G
                 (UTC)          (F)     (DEG/KT/KT) (MB)    (MI)
150E HAT   41001 NOT AVBL
W BERMUDA  41048 2050            85 85  210/ 12/ 14 1019.1F
WVE H/P(F/S)=  3/ 5 SWL H/P/D(F/S/D)=  2/130/ 6

ATLANTIC S 41049 2050            84 85  100/  8/ 10 1022.4S
WVE H/P(F/S)=  4/ 8 SWL H/P/D(F/S/D)=  3/ 90/ 8

E BAHAMAS  41046 2100            84 85  100/ 12/ 16 1018.5F
NE BAHAMAS 41047 2100            85 85  170/ 10/ 12 1019.1S
120E CANVRL41010 2020            86 90   90/  4/  6 1017.8F

END




USA.gov is the U.S. government's official web portal to all federal, state and local government web resources and services.